Weather History for KSTE - May, 2013

Change the Weather History Date:

Thursday, May 23, 2013

  Actual Average Record
Temperature  
Mean Temperature 48 °F -  
Max Temperature 58 °F 70 °F 90 °F (1975)
Min Temperature 39 °F 49 °F 27 °F (1963)
Degree Days  
Heating Degree Days 16    
Moisture  
Dew Point 35 °F    
Average Humidity 64    
Maximum Humidity 96    
Minimum Humidity 32    
Precipitation  
Precipitation 0.09 in - - ()
Sea Level Pressure  
Sea Level Pressure 30.13 in    
Wind  
Wind Speed 11 mph (North)    
Max Wind Speed 18 mph    
Max Gust Speed 26 mph    
Visibility 10 miles    
Events Rain    
Averages and records for this station are not official NWS values.
T = Trace of Precipitation, MM = Missing Value Source: NWS Daily Summary

Daily Weather History Graph

Daily Weather History Graph

Search for Another Location

Airport or City:

Trip Planner

Search our weather history database for the weather conditions in past years. The results will help you decide how hot, cold, wet, or windy it might be!

Date:

Astronomy

May. 23, 2013 Rise Set
Actual Time 5:22 AM CDT 8:28 PM CDT
Civil Twilight 4:47 AM CDT 9:03 PM CDT
Nautical Twilight 4:02 AM CDT 9:48 PM CDT
Astronomical Twilight 3:08 AM CDT 10:42 PM CDT
Moon 6:57 PM CDT (5/23) 4:11 AM CDT (5/23)
Length of Visible Light 16h 15m
Length of Day
15h 05m
Waxing Gibbous, 97% of the Moon is Illuminated
May 23
Waxing Gibbous
May 24
Full
May 31
Last Quarter
Jun 8
New
Jun 16
First Quarter

Hourly Weather History & Observations

Time (CDT) Temp. Windchill Dew Point Humidity Pressure Visibility Wind Dir Wind Speed Gust Speed Precip Events Conditions
12:15 AM 49.1 °F - 46.8 °F 92% 29.88 in 10.0 mi NNE 17.3 mph 23.0 mph 0.01 in Rain Light Rain
12:35 AM 49.1 °F - 46.8 °F 92% 29.89 in 10.0 mi NNE 12.7 mph 19.6 mph 0.02 in Rain Light Rain
12:55 AM 48.6 °F - 47.1 °F 95% 29.89 in 10.0 mi North 8.1 mph - 0.03 in Rain Light Rain
1:15 AM 48.4 °F - 47.3 °F 96% 29.89 in 10.0 mi North 6.9 mph - 0.01 in Rain Light Rain
1:35 AM 48.4 °F - 46.8 °F 94% 29.89 in 10.0 mi NNE 10.4 mph - 0.02 in Rain Rain
1:55 AM 48.2 °F - 46.6 °F 94% 29.90 in 10.0 mi NNE 10.4 mph - 0.04 in Rain Rain
2:15 AM 47.5 °F - 45.7 °F 93% 29.91 in 10.0 mi NNE 13.8 mph 17.3 mph 0.01 in Rain Light Rain
2:35 AM 46.8 °F - 44.6 °F 92% 29.91 in 10.0 mi North 11.5 mph - 0.02 in Rain Light Rain
2:55 AM 46.4 °F 41.5 °F 44.8 °F 94% 29.92 in 10.0 mi North 10.4 mph - 0.02 in   Overcast
3:15 AM 45.9 °F 42.3 °F 43.9 °F 93% 29.93 in 10.0 mi North 6.9 mph - N/A   Light Drizzle
3:35 AM 45.5 °F 41.3 °F 43.7 °F 93% 29.94 in 10.0 mi North 8.1 mph - N/A   Drizzle
3:55 AM 44.6 °F 39.2 °F 42.4 °F 92% 29.94 in 10.0 mi North 10.4 mph 19.6 mph N/A   Overcast
4:15 AM 43.5 °F 37.1 °F 41.2 °F 91% 29.96 in 10.0 mi North 12.7 mph 18.4 mph N/A   Overcast
4:35 AM 43.0 °F 38.2 °F 41.0 °F 93% 29.97 in 10.0 mi North 8.1 mph - N/A   Overcast
4:55 AM 42.8 °F 36.2 °F 40.8 °F 93% 29.98 in 10.0 mi North 12.7 mph 16.1 mph N/A   Overcast
5:15 AM 41.9 °F 35.9 °F 40.1 °F 93% 29.99 in 10.0 mi North 10.4 mph 17.3 mph N/A   Overcast
5:35 AM 41.2 °F 33.7 °F 39.2 °F 93% 30.01 in 10.0 mi North 13.8 mph 20.7 mph N/A   Overcast
5:55 AM 40.5 °F 32.1 °F 38.5 °F 93% 30.02 in 10.0 mi North 16.1 mph 19.6 mph N/A   Overcast
6:15 AM 40.1 °F 32.0 °F 37.8 °F 91% 30.03 in 10.0 mi North 15.0 mph 20.7 mph N/A   Overcast
6:35 AM 39.6 °F 30.6 °F 37.0 °F 91% 30.04 in 10.0 mi North 17.3 mph 25.3 mph N/A   Overcast
6:55 AM 40.1 °F 34.7 °F 37.0 °F 89% 30.05 in 10.0 mi North 8.1 mph 18.4 mph N/A   Overcast
7:15 AM 40.1 °F 34.7 °F 36.7 °F 88% 30.06 in 10.0 mi North 8.1 mph 18.4 mph N/A   Overcast
7:35 AM 40.6 °F 32.3 °F 37.2 °F 88% 30.07 in 10.0 mi North 16.1 mph 23.0 mph N/A   Overcast
7:55 AM 41.0 °F 34.3 °F 37.0 °F 86% 30.08 in 10.0 mi North 11.5 mph 17.3 mph N/A   Overcast
8:15 AM 42.3 °F 35.9 °F 37.4 °F 83% 30.09 in 10.0 mi North 11.5 mph 19.6 mph N/A   Overcast
8:35 AM 42.4 °F 35.0 °F 35.4 °F 76% 30.10 in 10.0 mi North 15.0 mph 19.6 mph N/A   Scattered Clouds
8:55 AM 43.9 °F 38.3 °F 36.1 °F 74% 30.11 in 10.0 mi North 10.4 mph 17.3 mph N/A   Scattered Clouds
9:15 AM 44.6 °F 36.9 °F 35.6 °F 71% 30.12 in 10.0 mi North 18.4 mph 23.0 mph N/A   Scattered Clouds
9:35 AM 45.3 °F 39.0 °F 35.6 °F 69% 30.13 in 10.0 mi NNE 13.8 mph - N/A   Scattered Clouds
9:55 AM 46.9 °F - 36.7 °F 68% 30.13 in 10.0 mi North 10.4 mph 19.6 mph N/A   Scattered Clouds
10:15 AM 46.8 °F - 36.0 °F 66% 30.14 in 10.0 mi NNE 12.7 mph 18.4 mph N/A   Scattered Clouds
10:35 AM 48.2 °F - 35.8 °F 62% 30.14 in 10.0 mi NNE 13.8 mph 19.6 mph N/A   Clear
10:55 AM 48.9 °F - 36.1 °F 61% 30.15 in 10.0 mi North 11.5 mph 17.3 mph N/A   Clear
11:15 AM 50.0 °F - 34.9 °F 56% 30.15 in 10.0 mi North 10.4 mph - N/A   Clear
11:35 AM 50.7 °F - 33.8 °F 52% 30.16 in 10.0 mi North 11.5 mph 19.6 mph N/A   Clear
11:55 AM 52.5 °F - 34.0 °F 49% 30.16 in 10.0 mi NNE 8.1 mph - N/A   Clear
12:15 PM 53.4 °F - 31.3 °F 43% 30.16 in 10.0 mi NNE 12.7 mph 19.6 mph N/A   Clear
12:35 PM 54.0 °F - 31.3 °F 42% 30.16 in 10.0 mi North 10.4 mph 20.7 mph N/A   Clear
12:55 PM 54.9 °F - 31.8 °F 42% 30.16 in 10.0 mi NNE 11.5 mph 20.7 mph N/A   Clear
1:15 PM 55.6 °F - 32.0 °F 41% 30.17 in 10.0 mi North 11.5 mph 17.3 mph N/A   Clear
1:35 PM 55.6 °F - 29.1 °F 36% 30.17 in 10.0 mi NNE 15.0 mph 21.9 mph N/A   Clear
1:55 PM 56.8 °F - 30.4 °F 37% 30.18 in 10.0 mi North 15.0 mph 21.9 mph N/A   Clear
2:15 PM 56.8 °F - 30.4 °F 37% 30.18 in 10.0 mi NNE 13.8 mph 18.4 mph N/A   Clear
2:35 PM 57.0 °F - 30.0 °F 36% 30.18 in 10.0 mi NNE 17.3 mph 21.9 mph N/A   Clear
2:55 PM 57.4 °F - 27.5 °F 32% 30.18 in 10.0 mi NNE 10.4 mph 26.5 mph N/A   Clear
3:15 PM 57.6 °F - 29.8 °F 35% 30.19 in 10.0 mi North 13.8 mph 20.7 mph N/A   Clear
3:35 PM 58.8 °F - 31.3 °F 35% 30.19 in 10.0 mi NNE 16.1 mph 21.9 mph N/A   Clear
3:55 PM 58.1 °F - 29.5 °F 34% 30.20 in 10.0 mi NNE 15.0 mph 21.9 mph N/A   Clear
4:15 PM 57.9 °F - 30.7 °F 36% 30.19 in 10.0 mi NNE 11.5 mph 20.7 mph N/A   Clear
4:35 PM 58.1 °F - 29.3 °F 33% 30.20 in 10.0 mi NNE 15.0 mph 19.6 mph N/A   Clear
4:55 PM 58.5 °F - 30.6 °F 35% 30.20 in 10.0 mi North 6.9 mph 20.7 mph N/A   Clear
5:15 PM 58.3 °F - 29.7 °F 34% 30.21 in 10.0 mi NNE 12.7 mph - N/A   Clear
5:35 PM 57.6 °F - 28.2 °F 33% 30.21 in 10.0 mi NNW 16.1 mph 23.0 mph N/A   Clear
5:55 PM 57.0 °F - 27.7 °F 33% 30.22 in 10.0 mi NNE 10.4 mph 23.0 mph N/A   Clear
6:15 PM 56.8 °F - 28.8 °F 34% 30.22 in 10.0 mi North 13.8 mph - N/A   Clear
6:35 PM 56.3 °F - 28.9 °F 35% 30.23 in 10.0 mi North 12.7 mph - N/A   Clear
6:55 PM 55.6 °F - 28.0 °F 35% 30.24 in 10.0 mi NNW 8.1 mph 17.3 mph N/A   Clear
7:15 PM 55.4 °F - 29.3 °F 37% 30.25 in 10.0 mi North 8.1 mph - N/A   Clear
7:35 PM 54.0 °F - 28.9 °F 38% 30.26 in 10.0 mi North 6.9 mph - N/A   Clear
7:55 PM 52.9 °F - 29.3 °F 40% 30.26 in 10.0 mi North 4.6 mph - N/A   Clear
8:15 PM 51.1 °F - 29.8 °F 44% 30.27 in 10.0 mi North 4.6 mph - N/A   Clear
8:35 PM 49.5 °F - 30.7 °F 49% 30.28 in 10.0 mi North 4.6 mph - N/A   Clear
8:55 PM 47.8 °F - 31.1 °F 52% 30.28 in 10.0 mi NNE 4.6 mph - N/A   Clear
9:15 PM 47.3 °F - 31.6 °F 55% 30.29 in 10.0 mi North 4.6 mph - N/A   Clear
9:35 PM 46.0 °F 43.1 °F 31.8 °F 58% 30.30 in 10.0 mi North 5.8 mph - N/A   Clear
9:55 PM 45.1 °F 43.7 °F 31.1 °F 58% 30.31 in 10.0 mi North 3.5 mph - N/A   Clear
10:15 PM 44.6 °F 42.2 °F 31.1 °F 59% 30.32 in 10.0 mi North 4.6 mph - N/A   Clear
10:35 PM 43.7 °F 41.1 °F 32.0 °F 63% 30.32 in 10.0 mi North 4.6 mph - N/A   Clear
10:55 PM 41.9 °F - 31.8 °F 67% 30.33 in 10.0 mi Calm Calm - N/A   Clear
11:15 PM 39.2 °F 35.0 °F 31.8 °F 75% 30.33 in 10.0 mi NNE 5.8 mph - N/A   Clear
11:35 PM 39.9 °F 35.8 °F 32.0 °F 73% 30.33 in 10.0 mi NE 5.8 mph - N/A   Clear
11:55 PM 39.4 °F 37.2 °F 32.0 °F 75% 30.33 in 10.0 mi North 3.5 mph - N/A   Clear